Location: San Antonio
(29.4240°N, 98.4930°W)
Time: 09:55:57
(UTC-05:00)

Envisat - Pass Details

Date: 22 June 2024
Orbit: 762 x 764 km, 98.3° (Epoch: 12 July)

Event Time Altitude Azimuth Distance (km) Brightness Sun altitude
Rises 06:04:33 0° 345° (NNW) 3,226 6.5 -6.6°
Reaches altitude 10° 06:08:17 10° 317° (NW) 2,296 5.4 -5.9°
Maximum altitude 06:10:15 12° 294° (WNW) 2,136 5.0 -5.6°
Drops below altitude 10° 06:12:14 10° 270° (W) 2,292 5.0 -5.2°
Enters shadow 06:14:17 - 252° (WSW) 2,727 5.2 -4.8°
